VKG154 LGRP-EKYT

Flight info

Callsign VKG154
Flight time N/A
Altitude 32000
Route VANES B34 GILOS UM601 MADEX UL53 AKORO DCT YNN UL604 DIMIS DCT ALELU/N0454F340 DCT PARAK DCT BILNA DCT REGLI DCT ATMEV DCT BINKA DCT SONAL DCT GIPUG
Aircraft A321/M-SDE3FGHIRWY/LB1

Departure

Time 2026-05-05 12:48
Airport Rhodes International Airport "Diagoras" (LGRP)

Arrival

Time N/A
Airport Aalborg Airport (EKYT)
Time Latitude Longitude Altitude Speed Heading
2026-05-05 12:28 36.40391 28.09232 28 ft 0 kts 160°
2026-05-05 12:29 36.40392 28.09232 28 ft 0 kts 160°
2026-05-05 12:38 36.40392 28.09231 28 ft 0 kts 160°
2026-05-05 12:39 36.40397 28.09229 28 ft 2 kts 159°
2026-05-05 12:40 36.40415 28.09220 28 ft 3 kts 151°
2026-05-05 12:40 36.40432 28.09206 27 ft 3 kts 138°
2026-05-05 12:40 36.40445 28.09189 27 ft 3 kts 112°
2026-05-05 12:40 36.40449 28.09170 26 ft 2 kts 75°
2026-05-05 12:41 36.40448 28.09166 26 ft 2 kts 71°
2026-05-05 12:43 36.40452 28.09182 26 ft 4 kts 71°
2026-05-05 12:43 36.40463 28.09222 28 ft 8 kts 70°
2026-05-05 12:43 36.40488 28.09304 28 ft 10 kts 66°
2026-05-05 12:43 36.40528 28.09364 28 ft 8 kts 37°
2026-05-05 12:44 36.40569 28.09400 28 ft 7 kts 39°
2026-05-05 12:44 36.40600 28.09458 28 ft 9 kts 67°
2026-05-05 12:44 36.40620 28.09525 28 ft 8 kts 70°
2026-05-05 12:44 36.40646 28.09613 28 ft 14 kts 70°
2026-05-05 12:45 36.40679 28.09723 28 ft 13 kts 70°
2026-05-05 12:45 36.40707 28.09821 28 ft 11 kts 70°
2026-05-05 12:45 36.40732 28.09905 28 ft 10 kts 70°
2026-05-05 12:45 36.40769 28.10031 28 ft 20 kts 70°
2026-05-05 12:46 36.40813 28.10181 28 ft 17 kts 70°
2026-05-05 12:46 36.40850 28.10308 28 ft 14 kts 70°
2026-05-05 12:46 36.40884 28.10412 28 ft 12 kts 54°
2026-05-05 12:46 36.40954 28.10423 28 ft 12 kts 335°
2026-05-05 12:47 36.41011 28.10310 27 ft 20 kts 284°
2026-05-05 12:47 36.40985 28.10144 27 ft 19 kts 250°
2026-05-05 12:47 36.40923 28.09929 29 ft 50 kts 250°
2026-05-05 12:47 36.40716 28.09224 31 ft 121 kts 250°
2026-05-05 12:48 36.40365 28.08021 103 ft 168 kts 250°
2026-05-05 12:48 36.39967 28.06643 901 ft 167 kts 254°
2026-05-05 12:48 36.39565 28.05245 1559 ft 176 kts 256°
2026-05-05 12:48 36.39147 28.03760 1771 ft 192 kts 257°
2026-05-05 12:49 36.38695 28.02136 1988 ft 206 kts 256°
2026-05-05 12:49 36.38214 28.00416 2396 ft 213 kts 255°
2026-05-05 12:49 36.37719 27.98673 2921 ft 215 kts 256°
2026-05-05 12:49 36.37215 27.96902 3413 ft 220 kts 256°
2026-05-05 12:50 36.36699 27.95087 3902 ft 225 kts 256°
2026-05-05 12:50 36.36227 27.93230 4415 ft 226 kts 266°
2026-05-05 12:50 36.36235 27.91315 4956 ft 221 kts 285°
2026-05-05 12:50 36.36495 27.89407 5428 ft 226 kts 282°
2026-05-05 12:51 36.36738 27.87473 5990 ft 228 kts 282°
2026-05-05 12:51 36.36981 27.85515 6472 ft 232 kts 282°
2026-05-05 12:51 36.37219 27.83585 7144 ft 222 kts 283°
2026-05-05 12:51 36.37461 27.81659 7477 ft 230 kts 282°
2026-05-05 12:52 36.37702 27.79687 7910 ft 232 kts 282°
2026-05-05 12:52 36.37945 27.77698 8374 ft 233 kts 284°
2026-05-05 12:52 36.38191 27.75707 8848 ft 234 kts 283°
2026-05-05 12:52 36.38439 27.73698 9291 ft 236 kts 283°
2026-05-05 12:53 36.38692 27.71665 9640 ft 244 kts 284°
2026-05-05 12:53 36.38968 27.69522 9790 ft 259 kts 283°
2026-05-05 12:53 36.39264 27.67239 9918 ft 277 kts 283°
2026-05-05 12:53 36.39573 27.64823 10197 ft 291 kts 283°
2026-05-05 12:54 36.40242 27.59542 10444 ft 328 kts 282°
2026-05-05 12:54 36.40606 27.56654 10576 ft 345 kts 282°
2026-05-05 12:54 36.40984 27.53636 10693 ft 362 kts 281°
2026-05-05 12:55 36.41370 27.50484 10834 ft 376 kts 281°
2026-05-05 12:55 36.41765 27.47239 11183 ft 383 kts 282°
2026-05-05 12:55 36.42165 27.43965 11673 ft 385 kts 282°
2026-05-05 12:55 36.42570 27.40665 12168 ft 388 kts 281°
2026-05-05 12:56 36.42979 27.37343 12661 ft 390 kts 281°
2026-05-05 12:56 36.43388 27.34006 13160 ft 393 kts 281°
2026-05-05 12:56 36.43800 27.30642 13587 ft 395 kts 281°
2026-05-05 12:56 36.44218 27.27255 14051 ft 397 kts 281°
2026-05-05 12:57 36.44639 27.23861 14494 ft 398 kts 281°
2026-05-05 12:57 36.45058 27.20458 14942 ft 399 kts 281°
2026-05-05 12:57 36.45477 27.17041 15372 ft 401 kts 281°
2026-05-05 12:57 36.45896 27.13606 15756 ft 403 kts 281°
2026-05-05 12:58 36.46312 27.10152 16186 ft 405 kts 281°
2026-05-05 12:58 36.46728 27.06688 16611 ft 406 kts 281°
2026-05-05 12:58 36.47144 27.03214 17040 ft 407 kts 281°
2026-05-05 12:58 36.47573 26.99680 17470 ft 409 kts 281°
2026-05-05 12:59 36.47999 26.96184 17906 ft 410 kts 281°
2026-05-05 12:59 36.48426 26.92673 18326 ft 412 kts 281°
2026-05-05 12:59 36.48855 26.89154 18690 ft 413 kts 280°
2026-05-05 13:00 36.49709 26.82064 19376 ft 417 kts 280°
2026-05-05 13:00 36.50130 26.78499 19719 ft 418 kts 280°
2026-05-05 13:01 36.51397 26.67707 20736 ft 423 kts 280°
2026-05-05 13:01 36.51821 26.64089 21067 ft 424 kts 280°
2026-05-05 13:01 36.52246 26.60450 21397 ft 426 kts 279°
2026-05-05 13:01 36.52671 26.56799 21719 ft 427 kts 279°
2026-05-05 13:02 36.52953 26.54377 21924 ft 429 kts 280°
2026-05-05 13:02 36.53381 26.50698 22235 ft 430 kts 279°
2026-05-05 13:02 36.53809 26.47016 22550 ft 432 kts 279°
2026-05-05 13:02 36.54239 26.43311 22857 ft 433 kts 279°
2026-05-05 13:03 36.54670 26.39598 23161 ft 435 kts 279°
2026-05-05 13:03 36.55100 26.35870 23453 ft 436 kts 279°
2026-05-05 13:03 36.55529 26.32125 23729 ft 438 kts 279°
2026-05-05 13:03 36.55961 26.28318 23988 ft 439 kts 279°
2026-05-05 13:04 36.56386 26.24550 24249 ft 441 kts 280°
2026-05-05 13:04 36.56812 26.20769 24531 ft 441 kts 280°
2026-05-05 13:04 36.57225 26.16997 24896 ft 439 kts 280°
2026-05-05 13:04 36.57630 26.13233 25263 ft 438 kts 280°
2026-05-05 13:05 36.58032 26.09484 25610 ft 437 kts 280°
2026-05-05 13:05 36.58435 26.05739 25967 ft 436 kts 280°
2026-05-05 13:05 36.58837 26.02010 26322 ft 435 kts 280°
2026-05-05 13:05 36.59235 25.98285 26678 ft 434 kts 280°
2026-05-05 13:06 36.59626 25.94572 27007 ft 432 kts 281°
2026-05-05 13:06 36.60016 25.90868 27354 ft 431 kts 281°
2026-05-05 13:06 36.60405 25.87174 27706 ft 430 kts 281°
2026-05-05 13:06 36.60793 25.83485 28061 ft 429 kts 281°
2026-05-05 13:07 36.61180 25.79812 28404 ft 428 kts 281°
2026-05-05 13:07 36.61565 25.76148 28741 ft 427 kts 281°
2026-05-05 13:07 36.61948 25.72490 29089 ft 425 kts 281°
2026-05-05 13:07 36.62331 25.68848 29404 ft 424 kts 281°
2026-05-05 13:08 36.62712 25.65210 29710 ft 424 kts 282°
2026-05-05 13:08 36.63089 25.61579 30020 ft 422 kts 282°
2026-05-05 13:08 36.63464 25.57954 30307 ft 421 kts 282°
2026-05-05 13:08 36.63834 25.54341 30585 ft 420 kts 282°
2026-05-05 13:09 36.64201 25.50736 30861 ft 419 kts 282°
2026-05-05 13:09 36.64565 25.47136 31130 ft 418 kts 282°
2026-05-05 13:09 36.64964 25.43555 31400 ft 415 kts 286°
2026-05-05 13:09 36.65763 25.40081 31662 ft 409 kts 295°
2026-05-05 13:10 36.66979 25.36960 31926 ft 404 kts 303°
2026-05-05 13:10 36.68565 25.34024 32066 ft 404 kts 307°
2026-05-05 13:10 36.71803 25.28276 32094 ft 405 kts 307°
2026-05-05 13:11 36.75031 25.22512 32099 ft 405 kts 307°
2026-05-05 13:11 36.78257 25.16743 32099 ft 405 kts 307°
2026-05-05 13:12 36.81480 25.10974 32101 ft 405 kts 307°
2026-05-05 13:12 36.84700 25.05202 32116 ft 405 kts 307°
2026-05-05 13:13 36.87920 24.99419 32092 ft 405 kts 307°
2026-05-05 13:13 36.91123 24.93633 32094 ft 405 kts 307°
2026-05-05 13:14 36.94323 24.87847 32090 ft 405 kts 307°
2026-05-05 13:14 36.97524 24.82056 32089 ft 405 kts 307°
2026-05-05 13:15 37.00402 24.76856 32083 ft 405 kts 307°
2026-05-05 13:15 37.03620 24.71022 32084 ft 405 kts 307°
2026-05-05 13:16 37.06815 24.65219 32078 ft 405 kts 307°
2026-05-05 13:16 37.10003 24.59410 32081 ft 405 kts 307°
2026-05-05 13:17 37.13195 24.53600 32085 ft 405 kts 307°
2026-05-05 13:17 37.16385 24.47784 32084 ft 404 kts 307°
2026-05-05 13:18 37.19566 24.41960 32095 ft 405 kts 306°
2026-05-05 13:18 37.23089 24.36492 32076 ft 403 kts 314°
2026-05-05 13:19 37.26894 24.31340 32088 ft 402 kts 314°
2026-05-05 13:19 37.30689 24.26174 32084 ft 402 kts 314°
2026-05-05 13:20 37.34472 24.21009 32082 ft 402 kts 314°
2026-05-05 13:20 37.38257 24.15832 32082 ft 402 kts 314°
2026-05-05 13:21 37.42040 24.10659 32080 ft 402 kts 314°
2026-05-05 13:21 37.45825 24.05487 32059 ft 402 kts 314°
2026-05-05 13:22 37.49623 24.00271 32079 ft 401 kts 314°
2026-05-05 13:22 37.53386 23.95089 32090 ft 401 kts 314°
2026-05-05 13:23 37.57156 23.89911 32088 ft 401 kts 314°
2026-05-05 13:23 37.60911 23.84727 32082 ft 400 kts 314°
2026-05-05 13:24 37.64663 23.79540 32065 ft 400 kts 314°
2026-05-05 13:24 37.68415 23.74355 32044 ft 400 kts 314°
2026-05-05 13:25 37.72158 23.69170 32066 ft 399 kts 314°
2026-05-05 13:25 37.75890 23.63979 32068 ft 399 kts 314°
2026-05-05 13:26 37.79625 23.58786 32067 ft 399 kts 314°
2026-05-05 13:26 37.83352 23.53589 32087 ft 399 kts 314°
2026-05-05 13:27 37.87074 23.48392 32075 ft 399 kts 314°
2026-05-05 13:27 37.90800 23.43199 32069 ft 398 kts 314°
2026-05-05 13:28 37.94537 23.37969 32053 ft 398 kts 314°
2026-05-05 13:28 37.98238 23.32774 32058 ft 397 kts 314°
2026-05-05 13:29 38.01937 23.27581 32060 ft 397 kts 314°
2026-05-05 13:29 38.05637 23.22381 32060 ft 396 kts 314°
2026-05-05 13:30 38.09329 23.17185 32063 ft 396 kts 314°
2026-05-05 13:30 38.13012 23.11980 32080 ft 396 kts 314°
2026-05-05 13:31 38.16695 23.06772 32073 ft 396 kts 314°
2026-05-05 13:31 38.20369 23.01566 32073 ft 395 kts 314°
2026-05-05 13:32 38.24042 22.96364 32076 ft 395 kts 314°
2026-05-05 13:32 38.27711 22.91158 32074 ft 395 kts 314°
2026-05-05 13:33 38.31373 22.85942 32072 ft 395 kts 314°
2026-05-05 13:33 38.35041 22.80724 32075 ft 395 kts 314°
2026-05-05 13:34 38.38700 22.75505 32044 ft 395 kts 313°
2026-05-05 13:34 38.41768 22.71122 32049 ft 395 kts 313°
2026-05-05 13:35 38.45422 22.65880 32053 ft 395 kts 313°
2026-05-05 13:35 38.49071 22.60634 32050 ft 395 kts 313°
2026-05-05 13:36 38.52718 22.55409 32058 ft 395 kts 313°
2026-05-05 13:36 38.56372 22.50165 32063 ft 395 kts 313°
2026-05-05 13:37 38.60021 22.44905 32042 ft 395 kts 313°
2026-05-05 13:37 38.63668 22.39629 32048 ft 396 kts 313°
2026-05-05 13:38 38.67323 22.34345 32062 ft 397 kts 313°
2026-05-05 13:38 38.70978 22.29045 32069 ft 397 kts 313°
2026-05-05 13:39 38.74630 22.23737 32078 ft 397 kts 313°
2026-05-05 13:39 38.78285 22.18425 32083 ft 397 kts 313°
2026-05-05 13:40 38.81964 22.13091 32066 ft 396 kts 313°
2026-05-05 13:40 38.85604 22.07795 32055 ft 395 kts 312°
2026-05-05 13:41 38.89234 22.02485 32071 ft 396 kts 312°
2026-05-05 13:41 38.92862 21.97166 32074 ft 396 kts 312°
2026-05-05 13:42 38.96493 21.91853 32079 ft 395 kts 312°
2026-05-05 13:42 39.00120 21.86539 32076 ft 395 kts 312°
2026-05-05 13:43 39.03747 21.81215 32088 ft 396 kts 312°
2026-05-05 13:43 39.07363 21.75883 32081 ft 396 kts 312°
2026-05-05 13:44 39.10973 21.70544 32089 ft 395 kts 312°
2026-05-05 13:44 39.14584 21.65208 32101 ft 395 kts 312°
2026-05-05 13:45 39.18189 21.59879 32095 ft 394 kts 312°
2026-05-05 13:45 39.21780 21.54563 32081 ft 392 kts 312°
2026-05-05 13:46 39.25352 21.49243 32083 ft 393 kts 312°
2026-05-05 13:46 39.28949 21.43880 32080 ft 393 kts 312°
2026-05-05 13:47 39.32520 21.38560 32083 ft 392 kts 312°
2026-05-05 13:47 39.36087 21.33233 32092 ft 393 kts 312°
2026-05-05 13:48 39.39659 21.27894 32091 ft 393 kts 311°
2026-05-05 13:48 39.43235 21.22548 32093 ft 393 kts 312°
2026-05-05 13:49 39.46802 21.17182 32079 ft 393 kts 311°
2026-05-05 13:49 39.50375 21.11811 32088 ft 393 kts 311°
2026-05-05 13:50 39.53941 21.06436 32110 ft 393 kts 311°
2026-05-05 13:50 39.57496 21.01073 32116 ft 392 kts 311°
2026-05-05 13:51 39.61045 20.95711 32119 ft 391 kts 311°
2026-05-05 13:51 39.64584 20.90357 32130 ft 391 kts 311°
2026-05-05 13:52 39.68130 20.84997 32122 ft 391 kts 313°
2026-05-05 13:52 39.72414 20.80700 32116 ft 393 kts 330°
2026-05-05 13:53 39.77382 20.77691 32105 ft 394 kts 332°
2026-05-05 13:53 39.82348 20.74672 32109 ft 393 kts 332°
2026-05-05 13:54 39.87333 20.71627 32105 ft 393 kts 332°
2026-05-05 13:54 39.92291 20.68608 32101 ft 394 kts 332°
2026-05-05 13:55 39.97262 20.65580 32089 ft 394 kts 332°
2026-05-05 13:55 40.02234 20.62542 32074 ft 395 kts 332°
2026-05-05 13:56 40.07255 20.59599 32076 ft 398 kts 337°
2026-05-05 13:56 40.12672 20.57854 32085 ft 402 kts 342°
2026-05-05 13:57 40.18121 20.56229 32077 ft 402 kts 342°
2026-05-05 13:57 40.23582 20.54601 32076 ft 402 kts 342°
2026-05-05 13:58 40.29043 20.52964 32078 ft 403 kts 342°
2026-05-05 13:58 40.34499 20.51322 32092 ft 402 kts 342°
2026-05-05 13:59 40.42729 20.48845 32076 ft 403 kts 342°
2026-05-05 14:00 40.50008 20.46659 32065 ft 403 kts 342°
2026-05-05 14:00 40.56405 20.44724 32077 ft 404 kts 342°
2026-05-05 14:01 40.61904 20.43059 32077 ft 406 kts 342°
2026-05-05 14:01 40.67409 20.41395 32078 ft 407 kts 342°
2026-05-05 14:02 40.72927 20.39718 32077 ft 406 kts 342°
2026-05-05 14:02 40.78479 20.38034 32086 ft 406 kts 341°
2026-05-05 14:03 40.83953 20.36357 32083 ft 407 kts 341°
2026-05-05 14:03 40.89502 20.34660 32081 ft 407 kts 341°
2026-05-05 14:04 40.95024 20.32978 32089 ft 407 kts 341°
2026-05-05 14:04 41.00541 20.31307 32086 ft 407 kts 341°
2026-05-05 14:05 41.06056 20.29614 32083 ft 407 kts 341°
2026-05-05 14:05 41.10642 20.28195 32082 ft 407 kts 341°
2026-05-05 14:06 41.16153 20.26491 32085 ft 407 kts 341°
2026-05-05 14:06 41.21710 20.24786 32091 ft 407 kts 340°
2026-05-05 14:07 41.27206 20.23083 32089 ft 408 kts 341°
2026-05-05 14:07 41.32784 20.21363 32088 ft 409 kts 341°
2026-05-05 14:08 41.38326 20.19641 32093 ft 409 kts 341°
2026-05-05 14:08 41.43875 20.17925 32096 ft 410 kts 341°
2026-05-05 14:09 41.49443 20.16192 32079 ft 412 kts 341°
2026-05-05 14:09 41.55030 20.14454 32076 ft 413 kts 341°
2026-05-05 14:10 41.60630 20.12720 32064 ft 414 kts 341°
2026-05-05 14:10 41.66242 20.10967 32055 ft 415 kts 341°
2026-05-05 14:11 41.71888 20.09188 32060 ft 418 kts 341°
2026-05-05 14:11 41.77565 20.07392 32070 ft 420 kts 341°
2026-05-05 14:12 41.83259 20.05604 32076 ft 421 kts 341°
2026-05-05 14:12 41.88970 20.03805 32066 ft 422 kts 342°
2026-05-05 14:13 41.94700 20.02004 32073 ft 423 kts 342°
2026-05-05 14:13 42.00479 20.00181 32073 ft 424 kts 342°
2026-05-05 14:14 42.06232 19.98355 32076 ft 425 kts 342°
2026-05-05 14:14 42.11991 19.96517 32067 ft 426 kts 342°
2026-05-05 14:15 42.17771 19.94685 32064 ft 427 kts 342°